Location: ?
(35.4214°N, 139.3011°E)
Time: 06:52:04
(UTC+00:00)

Meteor 2-17 Rocket - Visible Passes

Search period start: 20 October 2020 00:00
Search period end: 30 October 2020 00:00
Orbit: 935 x 957 km, 82.5° (Epoch: 19 October)

Date Brightness Start Highest point End Pass type
(mag) Time Alt. Az. Time Alt. Az. Time Alt. Az.
25 Oct 6.8 10:41:25 10° N 10:41:31 10° N 10:41:31 10° N visible
26 Oct 6.8 10:57:47 10° N 10:58:07 12° N 10:58:07 12° N visible
27 Oct 6.9 11:14:22 10° NNW 11:14:47 12° NNW 11:14:47 12° NNW visible
28 Oct 6.3 09:46:35 10° NNE 09:47:27 14° NNE 09:47:27 14° NNE visible
28 Oct 7.0 11:31:14 10° NNW 11:31:30 11° NNW 11:31:30 11° NNW visible
29 Oct 6.1 10:02:35 10° N 10:04:15 19° NNE 10:04:15 19° NNE visible
